CAPE
0 0 0 0 0 0 0 0 0 0 0 0 0 0 0 0 0 0 0 0 0 0 0 0 0 0 0 0 0 0 3 18 9 10 10 355 778 1246 1326 1997 2598 2849 3022 3182 3066 3075 2834 2603 2329 2278 2282 2316 2252 2122 1945 1680 1529 1438 1274 1211 1120 1106 1162 1261 1069 887 794 663 588 78 114 418 557 851 869 866 841 920 961 1060 1180 1297 1163 964 946 968
0 0 0 0 0 0 0 0 0 0 0 0 0 0 0 0 0 0 0 0 0 0 0 0 0 0 0 0 0 0 0 0 29 44 29 38 733 1269 1570 2133 2566 2817 3020 3203 3092 3101 2968 2730 2455 2439 2421 2384 2346 2182 1898 1715 1622 1508 1352 1172 1175 1171 1207 1254 1131 931 865 781 648 609 501 480 666 887 917 881 877 1003 1068 1125 1261 1176 1102 1020 870 889
0 0 0 0 0 0 0 0 0 0 0 0 0 0 0 0 0 0 0 0 0 0 0 0 0 0 0 0 0 0 0 0 0 0 8 10 520 1038 1544 2167 2780 3000 3228 3382 3151 3001 2856 2730 2621 2566 2523 2457 2322 2085 1923 1766 1667 1540 1415 1285 1228 1222 1237 1289 1176 1020 926 862 712 689 593 559 755 917 951 921 930 1013 1072 1133 1175 1024 894 830 795 797
0 0 0 0 0 0 0 0 0 0 0 0 0 0 0 0 0 0 0 0 0 0 0 0 0 0 0 0 0 0 0 0 0 0 0 0 25 854 1401 2127 2773 3176 3324 3423 3263 3032 2899 2854 2749 2632 2543 2472 2335 2151 1940 1847 1735 1594 1469 1339 1280 1279 1202 1319 1224 1123 1019 935 752 717 746 669 850 972 993 1018 1053 1094 1068 1014 909 880 772 723 766 804
0 0 0 0 0 0 0 0 0 0 0 0 0 0 0 0 0 0 0 0 0 0 0 0 0 0 0 0 0 0 0 0 0 0 0 0 0 64 916 1730 2462 3073 3334 3394 3249 2978 2940 2903 2791 2687 2592 2466 2364 2255 2008 1858 1776 1667 1515 1391 1332 1331 1122 1331 1300 1200 1083 997 834 818 790 731 854 981 984 976 1012 1038 960 843 778 771 667 663 642 645
0 0 0 0 0 0 0 0 0 0 0 0 0 0 0 0 0 0 0 0 0 0 0 0 0 0 0 0 0 0 0 0 0 0 0 0 0 0 175 1123 2164 3031 3262 3272 3286 3100 3042 2979 2856 2711 2604 2492 2381 2265 2068 1865 1786 1703 1590 1442 1289 1426 1309 1330 1377 1294 1181 1063 911 883 840 818 787 882 900 896 885 862 824 764 670 618 578 590 571 539
0 0 0 0 0 0 0 0 0 0 0 0 0 0 0 0 0 0 0 0 0 0 0 0 0 0 0 0 0 0 0 0 0 0 0 0 0 0 1 439 1930 2855 3186 3229 3229 3181 3122 3021 2870 2752 2642 2517 2364 2237 2071 1922 1828 1725 1618 1452 1346 1479 1444 1389 1415 1364 1299 1174 988 942 904 828 780 800 843 826 824 797 766 694 581 546 539 550 543 503
0 0 0 0 0 0 0 0 0 0 0 0 0 0 0 0 0 0 0 3 0 0 0 0 0 0 0 0 0 0 0 0 0 0 0 0 0 0 30 901 1930 2590 2924 3067 3127 3143 3063 2944 2846 2741 2679 2502 2356 2210 2094 1976 1864 1753 1603 1452 1468 1536 1553 1456 1457 1437 1382 1329 1164 1046 1010 927 789 742 775 804 821 779 722 659 600 532 545 545 545 530
0 0 0 0 0 0 0 0 0 0 0 0 0 0 0 0 0 0 3 8 2 0 0 0 0 0 0 0 0 0 0 0 0 0 0 0 0 0 63 1042 1901 2500 2778 2903 2994 2995 2979 2900 2768 2706 2668 2526 2327 2220 2103 1973 1841 1720 1554 1516 1525 1569 1603 1560 1510 1475 1435 1376 1242 1144 1129 1029 805 721 674 765 825 788 701 626 585 546 526 516 521 518
0 0 0 0 0 1 0 0 0 0 0 0 0 0 0 0 0 0 0 22 6 2 0 0 0 0 0 0 0 0 0 0 0 0 0 0 0 0 131 1023 1643 2256 2624 2705 2744 2795 2849 2762 2674 2620 2584 2495 2359 2230 2070 1942 1849 1721 1650 1574 1585 1595 1578 1592 1592 1559 1513 1433 1338 1261 1243 1111 916 788 736 703 753 735 683 648 580 531 518 508 504 475
0 0 0 0 0 0 0 0 0 0 0 0 0 0 0 0 0 0 0 23 20 10 0 0 0 0 0 0 0 0 0 0 0 0 0 0 0 0 0 1011 1460 1984 2322 2529 2539 2596 2669 2668 2583 2472 2410 2452 2397 2206 2088 2014 1899 1798 1684 1703 1660 1670 1617 1592 1591 1599 1575 1479 1442 1359 1263 1171 1007 854 759 700 676 647 650 656 554 474 477 470 458 416
0 0 0 0 0 0 0 0 0 0 0 0 0 0 0 0 0 0 0 14 6 10 0 0 1 0 0 0 0 0 0 0 0 0 0 0 0 0 0 291 1389 1868 2102 2272 2384 2420 2500 2521 2449 2387 2373 2373 2356 2215 2130 2078 1937 1851 1780 1791 1759 1714 1692 1647 1609 1617 1582 1530 1478 1412 1336 1212 1032 868 806 818 700 613 686 658 601 416 372 400 380 72
0 0 0 0 0 0 0 0 0 0 0 0 0 0 0 0 0 0 0 16 12 0 0 0 0 0 0 0 0 0 0 0 0 0 0 0 0 0 0 0 972 1765 1942 2092 2213 2322 2433 2438 2405 2380 2393 2300 2316 2280 2259 2189 2072 1997 1941 1904 1850 1813 1745 1724 1710 1687 1609 1533 1496 1444 1372 1236 1037 951 958 863 732 719 756 707 510 176 0 231 325 0
0 0 0 0 0 0 0 1 0 0 0 0 0 0 0 0 0 0 0 9 8 0 0 0 1 0 0 0 0 0 0 0 0 0 0 0 0 0 0 0 355 1416 1834 2016 2181 2301 2413 2462 2404 2335 2220 2138 2207 2299 2301 2253 2114 2036 2033 1987 1933 1867 1831 1820 1781 1688 1598 1555 1500 1430 1351 1214 1067 1033 976 879 832 807 770 582 211 0 0 194 151 0
0 0 0 0 0 0 0 0 0 0 0 0 0 0 0 0 0 0 0 6 10 1 0 0 2 1 0 0 0 0 0 0 0 0 0 0 0 0 0 0 132 1244 1658 1909 2060 2197 2310 2315 2264 2146 2067 2090 2192 2275 2312 2244 2113 2074 2052 2031 1977 1930 1919 1904 1835 1698 1581 1515 1480 1442 1358 1248 1170 1098 1023 942 868 810 736 567 144 0 0 0 220 14
0 0 0 0 0 2 5 0 0 0 1 0 0 0 0 0 0 0 0 0 0 0 0 0 4 0 0 0 0 0 0 0 0 0 0 0 0 0 0 0 87 1050 1593 1846 1998 2098 2204 2208 2126 2052 2062 2116 2191 2255 2309 2230 2090 2054 2012 1995 1975 1980 1989 1938 1856 1728 1549 1484 1462 1466 1431 1350 1237 1120 1054 938 879 811 640 391 0 0 0 0 286 302
0 0 0 6 2 12 3 0 0 2 0 0 2 3 0 0 0 0 2 20 19 13 10 0 2 0 0 0 0 0 0 0 0 0 0 0 0 0 0 0 15 778 1437 1882 2079 2130 2232 2192 2042 2031 2038 2136 2224 2287 2301 2200 2113 1979 1956 1982 2026 2031 1979 1927 1855 1762 1610 1491 1463 1445 1428 1377 1259 1178 1038 912 908 791 516 280 0 0 42 294 331 319
0 13 15 63 10 7 7 0 0 2 0 0 0 2 0 0 229 12 25 40 19 9 8 8 3 0 0 0 0 0 0 0 0 0 0 0 0 0 0 0 101 836 1324 1897 2211 2245 2223 2151 2067 2048 2073 2134 2230 2309 2262 2158 2047 1956 1931 1970 2064 2016 1987 1925 1869 1768 1663 1486 1440 1435 1425 1397 1339 1202 1029 922 931 684 561 429 341 264 270 291 291 75
2 0 7 8 14 18 13 159 70 2 0 0 0 17 2 16 17 24 38 29 16 5 10 15 6 0 0 0 0 0 0 0 0 0 0 0 0 0 0 0 193 1066 1447 1876 2234 2354 2279 2170 2113 2100 2120 2163 2199 2225 2214 2132 2028 1954 1950 1961 1976 1973 1925 1900 1848 1753 1628 1497 1424 1456 1488 1411 1277 1166 1036 963 827 723 626 526 368 288 34 0 0 0
27 33 67 134 188 208 87 133 52 0 0 0 0 1 0 31 54 30 15 287 23 169 29 31 16 0 0 0 0 0 0 0 0 0 0 0 0 0 0 0 89 999 1446 1826 2244 2373 2342 2252 2170 2142 2141 2126 2145 2164 2200 2107 2001 1970 1964 1930 1929 1924 1859 1815 1765 1685 1624 1562 1442 1461 1472 1361 1249 1115 1022 921 842 775 679 550 438 366 292 210 183 0
20 3 0 56 107 74 148 117 66 0 0 0 0 0 5 0 16 11 28 7 0 4 7 29 22 1 0 0 0 0 0 0 0 0 0 0 0 0 0 0 25 552 1284 1871 2308 2371 2304 2243 2210 2180 2128 2112 2129 2180 2205 2122 2032 1954 1896 1901 1882 1904 1810 1744 1736 1687 1615 1586 1457 1381 1386 1320 1199 1036 939 887 839 760 665 560 479 417 363 301 250 195
0 8 0 15 30 46 10 115 122 30 0 0 0 0 3 9 15 6 22 22 18 4 15 20 17 3 0 0 0 0 0 0 0 0 0 0 0 0 0 0 8 291 1009 1753 2322 2372 2297 2259 2238 2202 2202 2156 2133 2217 2162 2070 1950 1878 1845 1820 1818 1807 1778 1726 1713 1671 1605 1515 1422 1371 1416 1337 1154 1016 981 913 854 809 684 585 482 423 378 364 292 197
0 2 6 1 32 49 0 0 114 129 72 44 4 18 20 21 5 10 24 32 37 16 44 21 39 13 0 0 0 0 0 0 0 0 0 0 0 0 0 0 0 91 711 1564 2298 2365 2322 2303 2263 2234 2210 2162 2168 2136 2102 1981 1900 1850 1821 1805 1819 1807 1762 1736 1795 1783 1621 1450 1458 1449 1454 1361 1129 980 966 931 888 784 648 589 428 382 388 394 325 249
14 10 35 57 63 29 11 17 140 176 117 46 15 24 15 12 0 2 17 28 25 33 50 7 0 0 0 1 0 0 0 0 0 0 0 0 0 0 0 0 0 1 204 1273 2107 2298 2302 2292 2293 2269 2192 2184 2120 2057 1970 1910 1832 1793 1777 1808 1807 1798 1822 1874 1928 1849 1704 1540 1509 1435 1324 1161 998 979 1004 968 847 830 696 486 341 376 391 354 326 294
7 5 11 33 101 232 292 147 97 132 71 51 19 14 4 12 0 6 14 29 46 52 41 0 0 0 13 25 10 6 0 0 0 0 0 0 0 0 0 0 0 0 285 956 1681 2120 2246 2232 2231 2201 2141 2066 1992 1941 1935 1914 1864 1789 1782 1803 1813 1818 1838 1918 1899 1885 1736 1567 1531 1501 1335 1112 1012 1030 1034 1003 885 783 660 400 383 398 373 362 358 291
4 4 21 12 62 94 75 80 67 68 60 19 4 5 11 12 0 22 9 10 34 34 28 7 0 4 32 18 28 139 114 0 0 1 0 0 0 0 0 0 0 63 690 1132 1431 1829 1997 2063 2073 2020 1988 1952 1932 1924 1930 1927 1865 1815 1801 1812 1838 1821 1839 1942 1956 1913 1736 1597 1585 1514 1366 1222 1057 1058 1094 1072 918 735 679 429 436 421 399 399 387 297
1 2 2 0 66 96 123 72 84 67 74 25 17 7 2 0 16 17 15 22 31 31 26 10 0 10 20 8 89 151 103 73 6 97 0 4 0 0 0 0 45 517 1077 1345 1428 1624 1800 1870 1904 1916 1933 1936 1930 1913 1918 1905 1871 1812 1774 1796 1786 1815 1820 1876 1967 1918 1757 1638 1568 1473 1358 1235 1177 1150 1137 1055 902 780 722 495 424 444 469 463 437 360
10 2 7 0 22 70 39 101 133 60 55 30 5 4 8 12 27 22 30 37 8 53 19 10 0 2 24 128 133 103 99 338 453 385 124 14 26 0 0 0 286 999 1377 1542 1613 1724 1812 1863 1890 1896 1930 1961 1937 1916 1898 1900 1890 1824 1780 1772 1790 1795 1832 1867 1862 1727 1664 1563 1516 1444 1354 1254 1242 1212 1190 1154 1058 877 688 472 454 499 518 511 475 434
0 0 2 0 27 40 76 71 64 49 54 16 5 11 16 3 6 29 19 34 16 22 4 6 28 26 35 32 79 123 423 595 531 722 505 191 194 142 71 284 666 1298 1582 1680 1755 1854 1904 1915 1931 1951 1977 1968 1947 1941 1957 1935 1876 1804 1764 1780 1782 1791 1838 1793 1769 1666 1659 1623 1581 1483 1340 1283 1270 1276 1323 1272 1044 823 641 559 575 498 486 500 488 452
0 2 2 5 0 26 41 6 20 29 29 20 3 14 14 2 0 0 9 27 12 11 7 4 0 14 16 59 65 77 392 857 1014 932 707 361 277 465 638 864 1106 1588 1771 1829 1874 1914 1943 1978 2001 2034 2025 2005 2016 2029 1975 1916 1846 1778 1771 1772 1765 1729 1710 1673 1704 1712 1683 1642 1593 1517 1339 1280 1332 1391 1304 1138 887 772 638 652 652 552 490 484 452 451
0 1 2 4 2 7 35 19 13 18 5 0 0 0 0 0 0 0 22 24 22 23 2 7 7 17 8 11 19 36 108 599 887 1023 818 844 996 1048 1218 1262 1392 1724 1876 1940 1937 1939 1977 2012 2071 2082 2081 2062 2066 2032 1945 1896 1837 1800 1748 1709 1686 1672 1699 1693 1717 1705 1682 1634 1597 1561 1384 1352 1393 1333 1197 1063 814 736 713 756 699 585 503 471 430 488
0 0 14 0 0 0 3 0 0 0 0 0 0 0 0 0 2 17 22 14 28 35 9 0 0 20 42 14 25 40 0 238 594 1014 1073 1410 1659 1665 1659 1666 1704 1809 1946 1979 1979 1958 1953 2003 2011 2055 2090 2083 2036 1990 1937 1893 1860 1785 1698 1628 1627 1662 1722 1753 1762 1731 1675 1625 1592 1496 1357 1351 1385 1347 1224 1034 850 792 803 765 718 638 449 363 392 588
8 10 0 0 0 0 0 0 0 0 3 3 0 0 3 0 0 1 0 0 1 12 5 7 0 13 30 17 8 0 6 0 80 1040 949 1368 2033 1992 2009 1934 1884 1910 1972 2002 1984 1959 1975 1982 1997 2032 2110 2047 1987 1996 1961 1903 1827 1773 1669 1622 1621 1628 1690 1734 1755 1712 1660 1620 1604 1492 1342 1340 1389 1334 1193 1001 886 854 814 823 770 668 331 286 462 613
0 0 0 16 0 0 0 0 0 0 0 10 56 0 77 105 70 103 185 149 22 0 1 0 1 0 0 0 8 2 8 0 0 194 829 1021 1440 2209 2166 2103 2094 2069 2024 2034 2022 2042 2036 2031 2025 2064 2096 2063 2026 1995 1964 1892 1842 1715 1587 1595 1613 1627 1651 1701 1722 1700 1665 1638 1658 1621 1360 1294 1322 1351 1234 1098 1022 942 850 878 825 576 293 290 385 424
0 1 1 4 3 0 0 0 0 0 3 0 0 186 344 433 510 388 239 4 148 314 0 0 0 0 7 0 0 0 0 39 62 0 0 567 1279 1981 2312 2313 2240 2138 2130 2087 2089 2081 2104 2047 2006 1995 2017 2049 2047 1993 1913 1868 1818 1591 1513 1585 1663 1635 1613 1606 1654 1664 1667 1675 1728 1716 1516 1338 1388 1403 1237 1116 1084 969 919 944 854 462 243 327 343 408
3 0 1 1 2 0 0 0 1 38 6 0 0 255 160 514 378 358 15 129 510 749 416 149 0 0 0 0 0 0 0 0 5 0 0 3 8 1405 2097 2343 2292 2289 2244 2209 2209 2198 2150 2128 2130 2110 2112 2091 2042 1983 1944 1898 1718 1529 1515 1582 1654 1628 1564 1544 1606 1660 1725 1750 1759 1743 1558 1413 1454 1452 1247 1095 1054 1001 1013 1073 943 468 317 332 416 358
5 0 0 1 0 0 0 0 0 0 0 51 79 64 2 238 346 400 416 311 629 775 662 738 551 469 6 0 0 0 0 0 0 1 0 0 0 331 1565 2101 2333 2434 2448 2387 2314 2266 2248 2267 2236 2228 2193 2154 2122 2052 1949 1821 1605 1489 1479 1522 1579 1579 1546 1554 1608 1670 1759 1794 1731 1670 1617 1591 1538 1460 1317 1120 1084 1187 1013 874 795 502 402 381 484 462
1 0 0 2 31 0 2 0 2 1 0 50 22 156 117 209 199 346 335 414 633 818 884 782 942 869 344 22 0 0 0 0 0 0 0 0 0 0 1082 1505 1853 2127 2261 2294 2270 2307 2372 2407 2380 2367 2311 2246 2126 2006 1855 1698 1603 1470 1471 1484 1520 1515 1526 1540 1589 1638 1761 1813 1814 1810 1672 1553 1462 1459 1226 990 1092 954 792 724 519 444 422 400 493 562
1 0 0 0 0 0 1 0 1 0 7 13 12 85 107 103 149 237 73 1 781 981 1027 1069 978 795 842 652 172 0 0 0 0 0 0 0 0 0 0 965 1165 1244 1390 1617 1882 2094 2260 2320 2365 2304 2229 2134 2029 1948 1841 1768 1721 1634 1515 1488 1503 1484 1477 1498 1540 1550 1669 1782 1821 1777 1589 1440 1408 1339 1282 1194 1096 1009 828 655 421 418 468 450 354 434
0 0 0 0 0 0 0 0 7 3 30 5 0 24 89 112 128 90 101 139 682 979 1123 1142 1019 906 742 840 728 0 0 0 0 0 0 0 0 0 0 0 214 530 762 1071 1283 1554 1785 1911 2044 2084 2012 2011 1986 1922 1940 1948 1862 1774 1685 1530 1482 1464 1482 1486 1531 1557 1533 1646 1811 1869 1626 1680 1541 1321 1204 924 609 687 693 547 444 464 529 553 452 387
0 0 0 0 0 0 0 0 0 0 0 0 0 19 28 124 240 69 68 408 325 761 1016 1051 1098 898 846 902 814 770 250 0 0 0 0 0 0 2 0 0 0 320 604 688 738 967 1509 1929 2023 1955 1933 1982 2011 2029 2007 1959 1943 1888 1802 1631 1459 1450 1411 1348 1398 1512 1514 1554 1635 1680 1415 1299 1421 1273 1129 993 820 822 734 567 490 503 520 560 536 377
0 0 0 0 0 0 8 1 0 3 0 0 0 2 26 361 368 35 151 453 570 570 721 994 974 944 906 943 830 773 864 549 0 4 41 0 31 5 353 510 552 698 724 539 524 676 1002 1504 1891 2058 2082 2046 2057 2048 2024 1984 1906 1906 1845 1732 1598 1388 1302 1293 1340 1407 1467 1471 1540 1444 1230 1529 1536 1377 1131 847 839 777 702 626 526 526 625 599 552 272
5 0 1 11 8 6 10 4 2 8 9 0 30 38 29 67 182 276 415 581 329 309 301 651 839 914 965 954 815 914 1118 834 945 993 771 614 491 489 632 746 855 1036 1120 1032 840 1190 1258 1393 1653 1935 1996 1999 2003 1992 2037 1980 1939 1907 1855 1802 1632 1388 1370 1361 1330 1351 1415 1436 1424 1478 1398 1476 1128 1080 1110 1057 1017 896 668 602 605 549 609 668 615 248
0 21 11 15 14 8 0 1 8 25 13 4 11 0 39 37 146 99 195 512 439 506 575 642 887 1007 1010 1031 923 965 1297 1152 1118 1183 1255 1092 629 442 567 764 1038 1240 1340 1327 1278 1208 1382 1622 1750 1786 1850 1966 1977 2010 1996 1970 1948 1914 1872 1786 1557 1454 1458 1470 1444 1408 1413 1426 1406 1412 1168 995 1140 1088 1067 929 726 817 801 591 568 619 644 611 550 635
26 54 15 11 7 1 3 0 0 1 0 18 32 9 69 27 62 152 380 398 158 555 614 770 884 960 1000 1045 1015 814 1042 1017 1080 1064 1094 1163 1136 982 674 675 868 1126 1225 1400 1367 1297 1436 1576 1661 1821 1926 1822 1910 1965 1934 1915 1928 1888 1852 1744 1451 1452 1461 1520 1535 1497 1380 1329 1322 1313 1227 1098 1080 975 942 821 777 693 758 656 607 654 649 547 514 606
13 22 8 0 0 0 0 0 0 1 20 116 269 149 52 4 37 157 78 364 342 238 556 721 714 869 979 1076 1158 1025 869 666 713 894 1153 1173 1271 1239 1277 1354 1203 994 1184 1326 1387 1479 1451 1444 1588 1588 1610 1514 1786 1754 1762 1885 1870 1880 1836 1583 1381 1352 1458 1590 1557 1445 1396 1336 1226 1167 1140 1092 1052 995 954 919 790 756 770 618 609 606 585 551 539 528
1 15 2 0 34 0 5 0 0 73 0 242 157 108 20 8 39 86 47 1 201 78 404 394 410 618 779 1020 1176 1188 1142 999 877 727 781 1088 1225 1211 1171 1240 1268 1379 1412 1300 1395 1611 1555 1380 1333 1250 979 804 989 1205 1500 1680 1693 1660 1537 1440 1328 1350 1468 1663 1669 1605 1563 1427 1185 1077 1008 974 921 912 892 867 721 700 698 604 592 629 645 594 552 546
0 0 2 2 2 0 0 0 2 118 95 128 116 24 46 37 49 109 54 59 19 53 125 12 346 483 557 745 934 1104 1128 1176 1087 999 797 671 777 990 1093 1029 1020 1141 1252 1330 1289 1325 1356 1274 1180 1066 848 665 485 475 699 867 1213 938 1085 1287 1314 1351 1414 1521 1547 1518 1460 1286 1100 986 953 975 1014 936 915 930 800 717 613 651 700 734 729 664 613 585
0 0 0 0 0 0 1 14 22 83 55 124 38 5 6 30 22 20 46 34 27 26 11 66 410 481 520 721 854 932 1032 987 935 973 1060 992 821 750 830 889 983 1029 998 1012 1085 1083 1177 1158 1012 834 841 616 412 127 465 623 732 858 1104 1222 1367 1458 1555 1615 1603 1523 1458 1368 1236 1163 1133 983 786 885 824 820 786 697 644 648 661 548 526 582 587 540
1 3 0 154 0 5 3 12 82 2 12 0 0 0 27 118 7 23 10 38 42 10 15 40 58 242 705 837 907 733 538 643 715 887 906 906 921 899 773 822 912 1013 1112 1153 1156 1184 1215 1158 977 781 533 464 433 108 123 611 532 787 925 1140 1251 1334 1423 1487 1493 1432 1343 1184 1025 962 918 876 759 704 674 622 571 528 499 569 601 561 522 584 537 497
3 3 10 26 0 0 0 12 80 4 4 1 152 8 46 50 14 0 2 4 1 3 2 0 0 0 352 560 987 665 471 655 789 828 858 753 688 763 949 886 882 948 1053 1078 1026 1106 1149 1107 1070 967 680 455 450 662 377 381 646 856 820 1052 1095 1159 1311 1293 1262 1140 830 716 706 804 917 836 762 704 668 608 594 597 576 563 478 438 472 438 455 490
Wind_Speed
nan nan nan nan nan nan nan nan nan nan nan nan nan nan nan nan nan nan nan nan nan nan nan nan nan nan nan nan nan nan nan nan nan nan nan 36 34 31 29 32 33 33 32 34 41 43 36 32 33 33 30 28 26 25 25 27 28 29 30 31 31 30 32 35 38 39 38 36 35 nan 31 29 27 28 26 23 20 18 17 17 17 17 18 18 18 18
nan nan nan nan nan nan nan nan nan nan nan nan nan nan nan nan nan nan nan nan nan nan nan nan nan nan nan nan nan nan nan nan nan nan nan nan 35 35 32 32 34 34 40 45 45 40 38 36 36 33 28 26 27 25 27 28 30 31 32 34 34 32 33 36 39 39 37 35 33 32 30 28 27 28 25 21 19 17 17 17 18 18 19 19 19 18
nan nan nan nan nan nan nan nan nan nan nan nan nan nan nan nan nan nan nan nan nan nan nan nan nan nan nan nan nan nan nan nan nan nan nan nan 40 41 41 40 45 53 53 49 46 45 42 41 39 32 26 23 27 30 30 30 30 29 30 29 30 30 33 35 38 39 37 34 33 31 29 30 28 24 23 22 19 18 18 17 18 20 20 20 19 19
nan nan nan nan nan nan nan nan nan nan nan nan nan nan nan nan nan nan nan nan nan nan nan nan nan nan nan nan nan nan nan nan nan nan nan nan nan 38 38 42 46 52 54 50 49 47 44 42 41 34 27 28 33 33 31 30 29 27 28 28 29 31 34 37 37 39 38 37 33 31 32 30 29 26 24 22 20 19 18 17 18 19 21 20 20 20
nan nan nan nan nan nan nan nan nan nan nan nan nan nan nan nan nan nan nan nan nan nan nan nan nan nan nan nan nan nan nan nan nan nan nan nan nan nan 39 42 46 49 50 50 47 48 48 44 40 36 31 33 34 32 30 28 27 26 30 32 33 33 34 36 38 40 40 38 35 33 33 34 33 28 26 24 21 19 18 18 18 19 19 18 20 21
nan nan nan nan nan nan nan nan nan nan nan nan nan nan nan nan nan nan nan nan nan nan nan nan nan nan nan nan nan nan nan nan nan nan nan nan nan nan 45 44 49 47 47 49 48 49 48 44 40 37 36 34 32 28 26 26 26 29 31 33 32 31 32 35 38 40 40 38 36 35 36 35 31 28 26 24 23 20 20 19 18 18 17 19 20 21
nan nan nan nan nan nan nan nan nan nan nan nan nan nan nan nan nan nan nan nan nan nan nan nan nan nan nan nan nan nan nan nan nan nan nan nan nan nan nan 48 52 49 46 45 48 50 50 45 42 38 37 35 30 25 26 27 29 31 33 33 32 31 32 35 37 40 39 38 35 35 35 33 30 27 23 23 22 21 19 20 20 18 17 19 22 20
nan nan nan nan nan nan nan nan nan nan nan nan nan nan nan nan nan nan nan nan nan nan nan nan nan nan nan nan nan nan nan nan nan nan nan nan nan nan nan 49 52 50 49 49 49 49 49 47 43 39 36 33 26 25 27 29 32 35 35 36 35 33 34 36 38 39 40 38 35 34 34 33 29 27 25 23 21 20 20 20 19 18 18 18 19 20
nan nan nan nan nan nan nan nan nan nan nan nan nan nan nan nan nan nan nan nan nan nan nan nan nan nan nan nan nan nan nan nan nan nan nan nan nan nan nan 48 49 50 50 52 51 49 47 46 42 40 39 35 32 27 27 32 34 36 36 37 37 36 36 37 40 40 40 38 36 34 34 32 27 26 25 22 21 20 19 20 17 18 18 18 18 19
nan nan nan nan nan nan nan nan nan nan nan nan nan nan nan nan nan nan nan nan nan nan nan nan nan nan nan nan nan nan nan nan nan nan nan nan nan nan 47 46 46 48 50 50 50 47 45 43 41 40 40 42 36 28 27 32 35 35 36 37 37 35 35 39 41 42 41 39 36 34 33 33 28 25 24 22 22 20 19 19 18 17 19 19 19 18
nan nan nan nan nan nan nan nan nan nan nan nan nan nan nan nan nan nan nan nan nan nan nan nan nan nan nan nan nan nan nan nan nan nan nan nan nan nan nan 42 45 47 48 48 46 45 44 41 40 45 46 40 39 35 30 30 33 35 36 36 34 34 36 40 42 43 41 38 34 33 33 32 28 25 25 23 21 20 19 19 18 18 18 18 19 19
nan nan nan nan nan nan nan nan nan nan nan nan nan nan nan nan nan nan nan nan nan nan nan nan nan nan nan nan nan nan nan nan nan nan nan nan nan nan nan 41 43 45 45 45 43 40 40 40 43 47 46 42 40 37 31 29 33 35 36 35 33 34 36 39 40 40 39 36 33 32 32 30 26 26 23 23 22 21 20 19 19 18 18 17 19 nan
nan nan nan nan nan nan nan nan nan nan nan nan nan nan nan nan nan nan nan nan nan nan nan nan nan nan nan nan nan nan nan nan nan nan nan nan nan nan nan nan 42 42 41 40 37 37 38 39 40 38 38 38 35 30 28 31 34 36 36 34 34 34 36 38 38 37 37 34 32 31 30 27 25 23 22 21 22 20 20 20 19 19 nan 18 19 nan
nan nan nan nan nan nan nan nan nan nan nan nan nan nan nan nan nan nan nan nan nan nan nan nan nan nan nan nan nan nan nan nan nan nan nan nan nan nan nan nan 37 37 36 36 36 38 37 34 31 31 35 34 30 30 32 33 34 35 35 34 34 35 36 37 37 37 35 32 31 29 28 26 24 22 20 20 21 20 20 20 19 nan nan 18 19 nan
nan nan nan nan nan nan nan nan nan nan nan nan nan nan nan nan nan nan nan nan nan nan nan nan nan nan nan nan nan nan nan nan nan nan nan nan nan nan nan nan 36 37 36 36 35 35 33 31 30 31 31 28 26 30 31 31 32 33 34 33 33 35 35 36 36 35 33 31 30 27 25 25 23 21 20 19 20 21 21 19 19 nan nan nan 19 nan
nan nan nan nan nan nan nan nan nan nan nan nan nan nan nan nan nan nan nan nan nan nan nan nan nan nan nan nan nan nan nan nan nan nan nan nan nan nan nan nan nan 38 36 33 30 29 28 29 30 29 24 20 21 24 24 26 28 30 31 31 32 35 35 34 35 33 32 30 27 25 24 23 21 20 20 20 20 20 20 19 nan nan nan nan 19 20
nan nan nan nan nan nan nan nan nan nan nan nan nan nan nan nan nan nan nan nan nan nan nan nan nan nan nan nan nan nan nan nan nan nan nan nan nan nan nan nan nan 39 36 34 31 27 25 26 26 23 19 18 19 20 21 23 25 28 30 30 31 34 33 33 32 32 30 28 25 23 23 22 20 20 21 21 21 21 19 19 nan nan nan 18 19 21
nan nan nan nan nan nan nan nan nan nan nan nan nan nan nan nan 35 nan nan nan nan nan nan nan nan nan nan nan nan nan nan nan nan nan nan nan nan nan nan nan 42 41 37 35 32 27 28 28 24 19 17 19 20 21 22 23 25 28 30 30 32 33 32 31 32 31 29 26 23 22 21 20 19 20 21 21 21 20 19 18 19 19 19 18 19 nan
nan nan nan nan nan nan nan 45 nan nan nan nan nan nan nan nan nan nan nan nan nan nan nan nan nan nan nan nan nan nan nan nan nan nan nan nan nan nan nan nan 36 36 34 33 32 28 28 25 20 18 18 18 18 22 25 26 28 31 31 31 31 31 30 31 30 29 26 24 21 20 20 20 19 20 21 21 21 19 18 19 19 19 nan nan nan nan
nan nan nan 31 37 43 nan 41 nan nan nan nan nan nan nan nan nan nan nan 38 nan 58 nan nan nan nan nan nan nan nan nan nan nan nan nan nan nan nan nan nan nan 30 29 31 29 26 24 21 18 17 18 20 22 25 27 28 31 32 32 32 30 28 29 30 29 26 24 21 21 22 22 20 20 21 22 21 20 18 17 18 18 19 20 21 21 nan
nan nan nan nan 38 nan 42 39 nan nan nan nan nan nan nan nan nan nan nan nan nan nan nan nan nan nan nan nan nan nan nan nan nan nan nan nan nan nan nan nan nan 28 29 29 28 25 21 18 16 14 15 21 26 30 31 30 30 31 33 32 30 29 28 28 27 25 22 21 21 23 23 22 21 21 22 21 20 18 17 17 18 19 21 22 21 22
nan nan nan nan nan nan nan 32 37 nan nan nan nan nan nan nan nan nan nan nan nan nan nan nan nan nan nan nan nan nan nan nan nan nan nan nan nan nan nan nan nan 26 27 29 29 26 21 18 15 14 16 21 29 32 30 29 31 31 31 31 29 26 26 26 25 23 23 22 23 24 23 23 21 22 22 21 20 18 17 17 18 21 22 23 22 23
nan nan nan nan nan nan nan nan 35 39 nan nan nan nan nan nan nan nan nan nan nan nan nan nan nan nan nan nan nan nan nan nan nan nan nan nan nan nan nan nan nan nan 28 29 29 25 21 17 14 15 20 25 29 30 30 31 31 30 31 30 26 25 25 25 23 23 23 23 23 24 23 23 22 22 22 22 20 19 17 18 20 22 24 23 23 22
nan nan nan nan nan nan nan nan 35 38 36 nan nan nan nan nan nan nan nan nan nan nan nan nan nan nan nan nan nan nan nan nan nan nan nan nan nan nan nan nan nan nan 30 30 28 25 21 17 15 16 18 22 25 29 31 30 30 30 30 28 25 23 24 24 23 23 23 23 24 24 23 22 22 22 22 22 21 20 18 19 20 22 24 25 24 24
nan nan nan nan 27 25 26 28 nan 41 nan nan nan nan nan nan nan nan nan nan nan nan nan nan nan nan nan nan nan nan nan nan nan nan nan nan nan nan nan nan nan nan 31 31 28 25 23 18 17 16 18 23 29 31 31 30 29 29 29 27 24 23 24 24 23 23 23 24 25 24 23 22 22 22 22 22 22 21 20 20 21 22 25 25 25 25
nan nan nan nan nan nan nan nan nan nan nan nan nan nan nan nan nan nan nan nan nan nan nan nan nan nan nan nan nan 63 55 nan nan nan nan nan nan nan nan nan nan nan 32 29 26 24 23 20 18 19 21 27 32 31 29 29 29 29 28 26 25 26 26 24 23 23 24 24 25 23 22 22 22 22 23 23 23 22 20 20 21 23 24 25 26 25
nan nan nan nan nan nan 20 nan nan nan nan nan nan nan nan nan nan nan nan nan nan nan nan nan nan nan nan nan nan 63 65 nan nan nan nan nan nan nan nan nan nan 35 31 29 28 26 26 23 21 20 22 27 28 26 27 29 29 29 27 26 26 26 27 26 24 24 24 24 25 23 22 22 23 23 23 23 22 21 20 21 22 24 25 24 26 26
nan nan nan nan nan nan nan 20 25 nan nan nan nan nan nan nan nan nan nan nan nan nan nan nan nan nan nan 35 38 52 nan 64 59 48 39 nan nan nan nan nan 40 41 39 37 36 34 29 25 22 21 23 28 29 28 28 28 28 29 28 27 27 28 27 26 25 24 24 25 25 23 22 23 25 25 24 23 22 21 20 21 22 24 25 25 25 25
nan nan nan nan nan nan nan nan nan nan nan nan nan nan nan nan nan nan nan nan nan nan nan nan nan nan nan nan nan 39 47 55 57 55 47 40 40 43 nan 47 43 44 44 42 38 33 29 27 24 23 26 30 34 33 30 29 28 28 27 27 28 28 26 27 26 25 25 25 25 23 24 26 27 26 24 23 23 21 20 21 22 25 25 24 24 24
nan nan nan nan nan nan nan nan nan nan nan nan nan nan nan nan nan nan nan nan nan nan nan nan nan nan nan nan nan nan 40 47 52 47 47 46 43 43 46 46 45 44 42 39 35 31 31 30 28 27 29 32 33 32 32 31 29 28 28 28 28 28 28 29 27 26 27 27 26 25 26 27 28 27 25 24 23 21 20 21 23 25 25 24 24 24
nan nan nan nan nan nan nan nan nan nan nan nan nan nan nan nan nan nan nan nan nan nan nan nan nan nan nan nan nan nan 42 47 54 54 51 51 47 45 45 44 41 39 36 34 32 31 32 33 31 30 31 31 30 30 31 30 28 28 29 29 28 28 29 29 28 26 28 28 28 27 28 28 28 27 26 24 23 21 21 22 23 25 25 24 24 24
nan nan nan nan nan nan nan nan nan nan nan nan nan nan nan nan nan nan nan nan nan nan nan nan nan nan nan nan nan nan nan 50 51 51 55 55 49 48 46 43 39 36 33 32 32 33 35 35 32 28 27 28 28 28 28 29 29 29 28 28 28 29 30 29 28 28 29 30 30 29 29 29 29 27 26 24 22 21 21 22 23 24 24 24 24 24
nan nan nan nan nan nan nan nan nan nan nan nan nan nan nan nan nan nan nan nan nan nan nan nan nan nan nan nan nan nan nan nan nan 49 52 54 48 45 46 44 40 37 36 35 35 33 32 28 24 21 23 25 25 25 25 28 30 27 26 25 26 29 30 29 28 29 30 31 31 31 31 31 29 27 25 23 22 22 22 23 23 24 24 24 24 25
nan nan nan nan nan nan nan nan nan nan nan nan nan nan nan 34 nan 33 31 31 nan nan nan nan nan nan nan nan nan nan nan nan nan 47 48 45 46 42 42 41 39 36 34 32 30 28 26 24 22 20 20 19 20 22 25 28 28 27 27 27 29 29 29 30 29 30 30 32 33 33 33 32 29 26 25 23 22 22 23 23 23 23 23 24 25 26
nan nan nan nan nan nan nan nan nan nan nan nan nan 33 33 33 33 30 27 nan 29 33 nan nan nan nan nan nan nan nan nan nan nan nan nan 43 43 39 32 32 32 29 25 24 25 25 24 22 21 21 19 17 19 23 27 27 28 30 30 29 30 30 31 30 30 29 31 32 34 34 34 31 28 27 25 24 24 23 23 23 23 23 23 24 25 27
nan nan nan nan nan nan nan nan nan nan nan nan nan 35 35 38 40 47 nan 30 32 35 33 27 nan nan nan nan nan nan nan nan nan nan nan nan nan 29 31 26 24 24 22 20 20 19 19 18 18 17 15 17 21 22 23 25 28 29 29 30 31 32 32 31 30 29 31 33 34 34 33 32 29 27 26 25 24 24 24 24 24 24 24 26 25 26
nan nan nan nan nan nan nan nan nan nan nan nan nan nan nan 45 47 44 33 29 32 39 41 33 29 28 nan nan nan nan nan nan nan nan nan nan nan 25 24 24 25 23 24 23 22 18 17 17 16 15 17 21 23 24 23 26 29 30 31 31 31 33 33 32 30 28 30 33 34 35 33 31 30 28 27 27 27 25 26 28 26 25 26 28 28 30
nan nan nan nan nan nan nan nan nan nan nan nan nan 36 35 39 40 38 31 30 33 44 39 35 30 30 31 nan nan nan nan nan nan nan nan nan nan nan 35 33 31 29 25 23 21 19 18 15 14 16 19 22 23 23 26 29 30 32 32 31 32 33 33 32 28 28 29 31 33 33 32 31 31 31 30 30 28 27 27 27 28 29 30 31 30 30
nan nan nan nan nan nan nan nan nan nan nan nan nan nan 42 35 34 36 nan nan 34 39 39 37 34 33 29 29 29 nan nan nan nan nan nan nan nan nan nan 29 29 27 24 21 19 17 16 14 15 17 19 21 21 22 27 30 31 32 30 30 31 33 33 29 27 27 28 29 32 34 35 34 33 31 31 31 30 27 29 30 30 31 32 32 31 32
nan nan nan nan nan nan nan nan nan nan nan nan nan nan nan 38 33 nan 34 33 34 40 38 36 34 32 32 32 31 nan nan nan nan nan nan nan nan nan nan nan 24 23 20 18 17 15 15 16 20 20 18 17 18 23 27 29 30 29 29 29 31 32 30 26 26 28 30 32 35 36 35 33 31 30 32 32 30 29 31 33 32 32 33 34 33 34
nan nan nan nan nan nan nan nan nan nan nan nan nan nan nan 40 36 nan nan 32 34 39 39 37 32 29 28 28 28 29 20 nan nan nan nan nan nan nan nan nan nan 18 15 15 13 15 18 18 17 16 15 15 20 23 25 27 27 27 28 30 31 29 27 28 29 30 31 33 35 36 35 31 29 31 32 30 29 30 31 31 31 32 34 34 34 34
nan nan nan nan nan nan nan nan nan nan nan nan nan nan nan 42 40 nan 33 33 35 36 40 41 37 34 34 29 27 22 20 20 nan nan nan nan nan nan 35 37 37 38 37 31 26 20 18 19 19 20 22 25 27 27 27 27 26 27 29 30 28 27 30 30 30 31 32 34 35 34 34 32 29 30 31 29 30 31 31 30 31 31 32 32 30 30
nan nan nan nan nan nan nan nan nan nan nan nan nan nan nan nan 37 37 40 40 38 36 39 42 40 38 40 38 35 32 29 26 30 31 35 35 36 37 37 36 34 33 33 35 37 39 34 27 27 27 28 30 31 31 30 28 28 28 29 27 28 31 30 31 32 31 31 34 34 34 31 31 32 32 29 28 31 33 32 30 31 31 31 32 31 32
nan nan nan nan nan nan nan nan nan nan nan nan nan nan nan nan 37 nan 45 46 46 44 45 45 42 41 42 40 39 40 37 36 39 41 43 42 39 38 38 36 34 34 36 37 39 39 42 42 38 36 35 31 30 30 29 29 29 29 28 27 32 32 32 32 32 31 30 31 33 33 32 32 32 32 29 27 31 33 32 31 31 31 30 31 31 31
nan nan nan nan nan nan nan nan nan nan nan nan nan nan nan nan nan 34 38 40 45 49 48 46 46 47 46 44 42 45 45 47 45 45 51 47 45 44 45 43 41 40 41 42 42 43 44 44 43 41 36 33 32 31 29 28 29 30 29 31 33 32 32 33 32 30 30 31 31 32 32 31 31 30 29 29 32 32 30 30 30 29 28 29 29 29
nan nan nan nan nan nan nan nan nan nan nan 5 7 5 nan nan nan 27 nan 34 37 43 46 46 49 50 51 48 47 51 52 51 50 52 53 53 52 49 47 47 47 47 47 46 46 46 45 45 43 40 36 34 35 34 32 29 30 30 30 33 33 33 33 33 31 29 30 30 30 31 32 31 30 29 29 29 28 28 28 29 27 27 27 28 28 29
nan nan nan nan nan nan nan nan nan nan nan 5 3 5 nan nan nan nan nan nan 30 nan 40 42 46 46 47 46 47 50 54 56 56 55 53 53 55 52 50 48 47 47 48 48 43 43 43 41 41 42 42 36 34 37 39 37 36 35 35 33 34 34 33 32 32 32 32 31 30 31 30 30 28 27 27 26 26 26 26 26 26 28 28 28 30 30
nan nan nan nan nan nan nan nan nan 6 nan 4 7 nan nan nan nan 26 nan nan nan nan 32 nan 40 39 43 41 42 45 49 52 54 53 52 51 49 48 47 48 48 47 44 43 41 39 38 39 41 43 43 39 33 31 34 37 38 35 35 36 35 34 32 32 32 31 31 31 31 30 28 27 28 28 27 26 26 27 28 28 29 29 29 30 31 33
nan nan nan nan nan nan nan nan nan nan nan 4 nan nan nan nan nan nan nan nan nan nan nan nan 34 34 38 39 38 40 44 46 44 44 45 45 45 45 44 45 43 40 38 38 36 34 35 36 40 41 41 41 36 30 31 35 36 34 34 36 35 33 33 33 33 31 32 31 30 28 27 27 26 25 26 26 26 26 27 29 29 28 28 28 31 33
nan nan nan 10 nan nan nan nan nan nan nan nan nan nan nan 8 nan nan nan nan nan nan nan nan nan 34 36 39 36 37 41 40 41 41 42 42 43 42 41 40 38 36 33 29 30 32 34 35 37 38 39 38 37 32 30 32 35 36 35 36 36 34 33 33 31 30 30 29 28 27 27 27 26 26 26 27 28 29 28 26 27 27 28 30 30 33
nan nan nan nan nan nan nan nan nan nan nan nan 8 nan nan nan nan nan nan nan nan nan nan nan nan nan 37 37 34 32 35 39 39 39 40 40 40 39 39 38 36 32 28 25 28 32 33 32 34 39 40 40 38 38 38 40 44 47 44 42 40 36 33 32 32 31 29 28 27 27 27 27 27 27 28 28 29 28 28 29 28 30 31 33 35 36
Wind_Direction
nan nan nan nan nan nan nan nan nan nan nan nan nan nan nan nan nan nan nan nan nan nan nan nan nan nan nan nan nan nan nan nan nan nan nan 221 224 233 239 246 257 263 270 268 271 277 283 279 270 266 264 266 269 272 278 283 291 299 302 301 303 302 302 299 298 299 302 303 304 nan 308 308 305 304 304 301 298 299 302 304 306 309 311 311 310 309
nan nan nan nan nan nan nan nan nan nan nan nan nan nan nan nan nan nan nan nan nan nan nan nan nan nan nan nan nan nan nan nan nan nan nan nan 238 240 245 258 265 270 259 260 262 271 276 273 272 270 264 267 280 284 287 294 300 304 307 308 303 299 301 301 300 300 302 303 306 304 305 299 300 301 302 299 297 299 298 301 305 307 309 310 311 308
nan nan nan nan nan nan nan nan nan nan nan nan nan nan nan nan nan nan nan nan nan nan nan nan nan nan nan nan nan nan nan nan nan nan nan nan 246 253 255 252 252 248 255 267 272 275 277 276 274 272 267 272 286 285 290 293 293 297 299 299 300 299 300 300 300 301 302 297 300 299 297 297 292 291 295 295 295 295 299 302 306 306 309 311 310 307
nan nan nan nan nan nan nan nan nan nan nan nan nan nan nan nan nan nan nan nan nan nan nan nan nan nan nan nan nan nan nan nan nan nan nan nan nan 253 258 260 258 257 259 263 266 270 271 271 272 271 269 276 276 275 276 283 288 284 282 284 292 296 297 295 298 299 296 296 293 289 291 287 290 295 292 287 288 289 294 305 306 307 310 311 309 306
nan nan nan nan nan nan nan nan nan nan nan nan nan nan nan nan nan nan nan nan nan nan nan nan nan nan nan nan nan nan nan nan nan nan nan nan nan nan 247 252 256 261 262 263 264 266 266 267 271 278 281 279 281 280 281 282 286 280 282 285 292 295 296 290 292 293 292 290 287 286 283 285 284 284 286 287 288 294 302 303 306 312 308 307 304 303
nan nan nan nan nan nan nan nan nan nan nan nan nan nan nan nan nan nan nan nan nan nan nan nan nan nan nan nan nan nan nan nan nan nan nan nan nan nan 244 251 249 252 260 266 268 268 269 271 271 274 279 282 278 282 285 285 288 285 283 287 291 292 292 292 292 292 292 293 292 292 293 297 299 298 296 298 302 304 309 311 303 302 302 300 298 301
nan nan nan nan nan nan nan nan nan nan nan nan nan nan nan nan nan nan nan nan nan nan nan nan nan nan nan nan nan nan nan nan nan nan nan nan nan nan nan 248 252 252 249 254 263 266 269 271 272 276 282 284 278 281 283 285 289 289 288 291 294 293 292 292 293 293 291 292 292 296 298 299 302 299 290 286 294 302 302 301 304 302 296 295 298 298
nan nan nan nan nan nan nan nan nan nan nan nan nan nan nan nan nan nan nan nan nan nan nan nan nan nan nan nan nan nan nan nan nan nan nan nan nan nan nan 243 249 252 255 255 259 266 273 278 281 282 285 281 277 269 278 287 285 290 292 292 292 289 290 291 292 294 293 292 291 294 297 299 300 299 295 295 296 296 298 300 303 298 295 294 296 298
nan nan nan nan nan nan nan nan nan nan nan nan nan nan nan nan nan nan nan nan nan nan nan nan nan nan nan nan nan nan nan nan nan nan nan nan nan nan nan 240 248 254 256 259 262 269 273 278 284 286 283 281 270 267 285 289 284 284 287 288 288 289 289 290 292 293 291 289 291 294 296 297 292 288 289 288 292 297 298 300 297 296 295 295 298 300
nan nan nan nan nan nan nan nan nan nan nan nan nan nan nan nan nan nan nan nan nan nan nan nan nan nan nan nan nan nan nan nan nan nan nan nan nan nan 237 242 248 251 254 260 269 271 272 279 287 289 284 277 275 281 286 279 277 283 285 286 288 290 289 288 290 292 289 287 289 294 297 298 290 283 283 288 296 300 300 301 300 298 299 303 304 304
nan nan nan nan nan nan nan nan nan nan nan nan nan nan nan nan nan nan nan nan nan nan nan nan nan nan nan nan nan nan nan nan nan nan nan nan nan nan nan 243 251 253 253 254 259 266 275 281 284 275 272 275 275 276 277 276 284 288 287 286 289 293 288 288 291 290 288 286 290 295 298 297 292 290 292 293 298 299 300 303 302 301 303 305 309 309
nan nan nan nan nan nan nan nan nan nan nan nan nan nan nan nan nan nan nan nan nan nan nan nan nan nan nan nan nan nan nan nan nan nan nan nan nan nan nan 240 250 255 255 257 261 264 269 268 265 267 271 272 280 283 279 276 285 287 284 286 290 290 291 288 289 288 286 286 290 293 296 294 291 293 294 301 305 307 307 305 303 299 301 305 306 nan
nan nan nan nan nan nan nan nan nan nan nan nan nan nan nan nan nan nan nan nan nan nan nan nan nan nan nan nan nan nan nan nan nan nan nan nan nan nan nan nan 248 250 253 261 269 272 270 271 276 279 280 275 279 292 290 284 286 283 280 287 292 294 292 289 288 288 288 288 292 294 293 288 285 290 295 299 302 304 303 302 302 303 nan 306 304 nan
nan nan nan nan nan nan nan nan nan nan nan nan nan nan nan nan nan nan nan nan nan nan nan nan nan nan nan nan nan nan nan nan nan nan nan nan nan nan nan nan 251 255 262 269 275 275 273 274 280 292 291 284 284 292 290 286 283 278 278 286 292 295 291 286 287 288 290 292 291 290 289 283 281 286 291 294 298 300 299 301 304 nan nan 308 306 nan
nan nan nan nan nan nan nan nan nan nan nan nan nan nan nan nan nan nan nan nan nan nan nan nan nan nan nan nan nan nan nan nan nan nan nan nan nan nan nan nan 258 261 266 273 276 275 277 282 291 299 298 290 286 289 286 280 278 275 278 285 290 290 289 288 289 287 291 290 289 286 283 280 277 283 286 289 293 297 299 297 296 nan nan nan 298 nan
nan nan nan nan nan nan nan nan nan nan nan nan nan nan nan nan nan nan nan nan nan nan nan nan nan nan nan nan nan nan nan nan nan nan nan nan nan nan nan nan nan 260 264 268 275 281 288 293 294 294 298 293 285 286 281 280 278 279 282 286 289 292 290 289 288 289 291 289 286 284 281 279 279 277 280 281 286 291 294 295 nan nan nan nan 292 293
nan nan nan nan nan nan nan nan nan nan nan nan nan nan nan nan nan nan nan nan nan nan nan nan nan nan nan nan nan nan nan nan nan nan nan nan nan nan nan nan nan 257 263 268 275 281 289 288 289 288 292 292 289 287 289 289 285 286 282 282 284 284 284 288 290 289 289 287 287 285 279 277 277 280 284 286 291 292 290 288 nan nan nan 285 290 292
nan nan nan nan nan nan nan nan nan nan nan nan nan nan nan nan 200 nan nan nan nan nan nan nan nan nan nan nan nan nan nan nan nan nan nan nan nan nan nan nan 250 256 262 269 274 283 292 294 295 289 295 305 305 303 297 291 281 276 277 281 284 284 291 291 289 290 288 289 288 282 279 277 279 279 281 284 289 287 286 284 283 283 286 289 291 nan
nan nan nan nan nan nan nan 181 nan nan nan nan nan nan nan nan nan nan nan nan nan nan nan nan nan nan nan nan nan nan nan nan nan nan nan nan nan nan nan nan 254 257 260 264 267 275 282 280 278 289 310 309 298 298 298 290 277 270 270 273 278 288 292 291 287 286 282 285 280 274 274 276 273 275 279 282 285 285 288 290 289 292 nan nan nan nan
nan nan nan 179 184 182 nan 190 nan nan nan nan nan nan nan nan nan nan nan 198 nan 208 nan nan nan nan nan nan nan nan nan nan nan nan nan nan nan nan nan nan nan 258 261 266 271 280 284 286 296 308 312 309 305 297 288 281 272 273 274 275 276 277 278 281 285 284 286 286 277 270 269 271 274 278 282 285 287 288 290 291 291 291 292 295 292 nan
nan nan nan nan 181 nan 190 193 nan nan nan nan nan nan nan nan nan nan nan nan nan nan nan nan nan nan nan nan nan nan nan nan nan nan nan nan nan nan nan nan nan 263 267 271 276 284 290 293 296 301 304 305 297 289 282 277 275 274 272 275 276 282 286 289 288 286 286 281 273 276 276 276 276 282 281 284 289 290 290 287 288 291 292 291 296 296
nan nan nan nan nan nan nan 192 195 nan nan nan nan nan nan nan nan nan nan nan nan nan nan nan nan nan nan nan nan nan nan nan nan nan nan nan nan nan nan nan nan 268 275 278 279 285 288 286 287 292 295 288 287 285 280 273 269 271 275 276 278 281 284 287 284 286 285 281 275 279 278 279 277 280 280 286 289 290 290 288 289 291 293 299 298 299
nan nan nan nan nan nan nan nan 182 188 nan nan nan nan nan nan nan nan nan nan nan nan nan nan nan nan nan nan nan nan nan nan nan nan nan nan nan nan nan nan nan nan 276 274 276 280 283 286 289 295 299 296 296 291 282 271 273 276 276 276 278 284 285 283 283 282 280 280 279 282 278 279 279 280 285 288 287 291 290 288 288 292 297 298 299 298
nan nan nan nan nan nan nan nan 178 181 196 nan nan nan nan nan nan nan nan nan nan nan nan nan nan nan nan nan nan nan nan nan nan nan nan nan nan nan nan nan nan nan 274 272 272 273 274 273 274 276 285 287 290 291 286 280 279 277 275 276 276 282 280 275 275 279 281 282 282 280 279 279 276 282 285 289 289 294 289 287 288 291 296 297 297 299
nan nan nan nan 178 179 187 198 nan 193 nan nan nan nan nan nan nan nan nan nan nan nan nan nan nan nan nan nan nan nan nan nan nan nan nan nan nan nan nan nan nan nan 265 263 266 267 267 275 287 291 293 289 287 289 286 280 276 275 273 269 272 272 271 270 272 278 281 281 282 280 279 279 277 282 286 289 289 294 291 289 289 291 296 296 297 297
nan nan nan nan nan nan nan nan nan nan nan nan nan nan nan nan nan nan nan nan nan nan nan nan nan nan nan nan nan 199 199 nan nan nan nan nan nan nan nan nan nan nan 258 264 267 268 282 299 302 293 289 284 284 283 280 275 273 271 268 269 265 266 266 268 268 275 279 279 281 281 282 280 279 284 289 292 291 295 294 291 292 294 293 297 297 295
nan nan nan nan nan nan 198 nan nan nan nan nan nan nan nan nan nan nan nan nan nan nan nan nan nan nan nan nan nan 199 198 nan nan nan nan nan nan nan nan nan nan 252 255 266 274 277 281 284 292 291 285 281 282 280 277 276 273 269 268 267 262 261 263 266 270 274 277 280 281 280 283 281 282 284 289 292 291 291 292 292 293 295 295 295 297 296
nan nan nan nan nan nan nan 197 187 nan nan nan nan nan nan nan nan nan nan nan nan nan nan nan nan nan nan 171 187 195 nan 199 200 197 212 nan nan nan nan nan 245 247 253 262 269 277 283 286 285 278 272 272 278 280 277 275 275 274 271 269 262 261 261 261 269 272 275 278 279 281 282 280 280 284 288 289 290 292 291 290 292 294 292 293 297 297
nan nan nan nan nan nan nan nan nan nan nan nan nan nan nan nan nan nan nan nan nan nan nan nan nan nan nan nan nan 185 192 198 204 203 205 226 231 234 nan 247 251 254 258 265 272 278 283 282 277 274 270 272 274 277 277 274 269 262 260 260 261 261 264 264 267 271 272 275 277 278 278 276 278 282 287 290 291 291 289 290 292 292 293 295 295 293
nan nan nan nan nan nan nan nan nan nan nan nan nan nan nan nan nan nan nan nan nan nan nan nan nan nan nan nan nan nan 184 195 201 202 212 219 236 238 248 253 257 259 264 269 274 278 280 282 277 272 270 268 272 273 272 272 270 266 264 262 261 260 261 263 267 271 272 274 274 274 276 277 279 285 288 291 292 289 287 287 290 292 293 295 294 293
nan nan nan nan nan nan nan nan nan nan nan nan nan nan nan nan nan nan nan nan nan nan nan nan nan nan nan nan nan nan 184 189 193 196 207 210 217 235 243 249 255 263 269 273 275 276 275 273 270 268 268 272 273 274 272 271 269 264 261 260 260 260 259 262 265 269 271 271 270 271 273 277 282 286 291 291 287 285 286 287 287 290 292 292 292 292
nan nan nan nan nan nan nan nan nan nan nan nan nan nan nan nan nan nan nan nan nan nan nan nan nan nan nan nan nan nan nan 191 189 192 202 205 206 221 234 242 247 253 258 263 264 261 258 258 258 260 266 268 268 267 263 263 263 263 266 263 262 258 257 260 264 267 268 269 269 271 274 276 282 287 289 288 289 287 285 284 287 289 290 291 291 289
nan nan nan nan nan nan nan nan nan nan nan nan nan nan nan nan nan nan nan nan nan nan nan nan nan nan nan nan nan nan nan nan nan 193 202 203 201 215 226 231 237 245 253 253 253 249 249 254 258 263 263 261 264 264 265 265 264 268 267 264 260 257 259 261 262 264 266 267 269 271 274 277 283 286 286 288 288 285 284 285 285 286 289 293 291 287
nan nan nan nan nan nan nan nan nan nan nan nan nan nan nan 192 nan 195 178 172 nan nan nan nan nan nan nan nan nan nan nan nan nan 191 204 211 208 207 219 230 235 239 241 241 242 242 244 243 244 249 261 270 272 272 267 267 271 270 265 260 256 260 261 261 260 262 264 265 268 270 274 278 282 284 285 284 284 285 286 286 288 287 287 288 287 289
nan nan nan nan nan nan nan nan nan nan nan nan nan 186 188 197 211 199 169 nan 180 181 nan nan nan nan nan nan nan nan nan nan nan nan nan 206 206 198 214 224 231 235 238 237 233 232 234 241 247 250 253 250 254 254 255 257 257 257 259 261 262 261 261 260 259 260 262 265 267 270 274 277 282 284 281 283 285 285 286 285 283 286 287 287 289 289
nan nan nan nan nan nan nan nan nan nan nan nan nan 196 199 210 210 203 nan 196 198 194 194 190 nan nan nan nan nan nan nan nan nan nan nan nan nan 192 198 215 227 241 249 249 256 250 248 251 259 265 268 264 263 263 265 267 264 265 265 261 262 261 260 258 257 257 260 266 268 270 273 277 279 278 277 279 281 283 285 283 282 285 283 283 283 282
nan nan nan nan nan nan nan nan nan nan nan nan nan nan nan 208 208 206 198 189 200 195 192 189 187 182 nan nan nan nan nan nan nan nan nan nan nan 190 202 218 232 247 255 254 258 263 267 269 269 277 274 269 271 269 266 263 264 264 262 261 260 260 258 256 256 256 260 263 267 270 272 275 276 276 277 278 280 281 281 281 280 282 286 287 286 286
nan nan nan nan nan nan nan nan nan nan nan nan nan 198 204 206 209 208 203 197 206 198 196 195 191 184 181 nan nan nan nan nan nan nan nan nan nan nan 204 213 227 237 245 253 254 259 261 261 266 269 271 273 271 269 262 262 264 263 262 262 260 259 257 257 256 255 258 264 267 267 270 273 276 274 274 276 280 289 300 297 286 288 288 289 287 288
nan nan nan nan nan nan nan nan nan nan nan nan nan nan 192 205 212 209 nan nan 212 202 197 199 194 191 190 181 168 nan nan nan nan nan nan nan nan nan nan 225 231 236 240 248 257 257 260 266 273 267 263 268 272 267 263 265 266 263 263 261 260 258 257 256 256 258 259 257 260 264 266 267 270 274 279 283 284 291 298 297 291 284 282 283 288 292
nan nan nan nan nan nan nan nan nan nan nan nan nan nan nan 194 209 nan 214 210 203 204 204 204 199 194 191 186 184 nan nan nan nan nan nan nan nan nan nan nan 225 222 231 242 244 260 271 263 253 254 265 276 277 269 270 269 268 267 265 262 258 257 257 258 256 253 250 249 252 256 258 262 272 277 278 282 294 296 295 292 291 288 284 284 290 287
nan nan nan nan nan nan nan nan nan nan nan nan nan nan nan 193 210 nan nan 212 206 206 212 212 203 200 201 195 195 189 182 nan nan nan nan nan nan nan nan nan nan 214 214 223 227 234 246 257 269 278 281 275 273 271 272 272 271 267 261 259 258 258 254 251 247 247 246 247 252 259 264 268 276 281 283 289 297 298 290 287 289 288 287 289 280 279
nan nan nan nan nan nan nan nan nan nan nan nan nan nan nan 203 208 nan 213 214 207 204 209 216 209 210 213 211 212 211 186 173 nan nan nan nan nan nan 208 210 205 199 196 199 207 231 252 253 256 260 261 261 268 268 267 267 267 262 257 256 257 253 246 245 246 245 245 247 254 261 266 271 275 280 284 288 285 283 283 283 283 287 290 284 282 285
nan nan nan nan nan nan nan nan nan nan nan nan nan nan nan nan 205 206 201 204 211 210 214 212 217 215 220 216 219 220 209 210 220 219 220 212 212 209 211 214 217 218 220 226 226 218 218 234 249 254 257 256 260 261 262 263 261 253 252 254 250 244 243 242 242 245 249 252 255 258 262 267 271 273 275 279 281 280 278 278 279 279 279 280 281 285
nan nan nan nan nan nan nan nan nan nan nan nan nan nan nan nan 201 nan 206 198 201 208 211 211 212 216 217 222 222 225 223 218 222 228 229 225 218 215 218 223 228 234 240 242 241 242 243 235 227 234 241 248 255 256 256 258 255 250 249 247 241 240 240 243 245 249 252 255 260 262 261 267 274 275 274 278 276 276 278 278 278 279 280 282 284 285
nan nan nan nan nan nan nan nan nan nan nan nan nan nan nan nan nan 201 205 205 202 205 211 208 206 206 210 216 222 232 231 229 227 230 239 236 231 225 226 228 234 239 245 246 245 248 246 245 241 228 231 241 252 251 252 251 253 249 247 240 239 240 242 244 248 251 253 257 260 266 269 272 275 277 279 279 277 277 277 278 279 279 276 278 278 280
nan nan nan nan nan nan nan nan nan nan nan 79 85 149 nan nan nan 201 nan 198 203 205 208 209 206 207 207 213 220 227 229 230 229 231 235 238 237 234 236 240 241 244 245 247 249 249 248 249 250 250 242 231 232 239 241 239 242 249 241 238 238 239 243 248 251 254 259 261 264 269 271 274 275 276 276 274 273 277 280 281 279 277 276 277 279 281
nan nan nan nan nan nan nan nan nan nan nan 310 20 104 nan nan nan nan nan nan 199 nan 200 203 205 204 206 211 218 223 227 229 231 232 232 235 239 240 241 242 243 247 252 252 252 251 249 251 252 253 255 253 237 226 221 220 222 229 231 234 236 239 243 246 251 252 256 261 263 266 272 276 273 270 269 271 269 268 269 270 272 274 276 279 282 284
nan nan nan nan nan nan nan nan nan 355 nan 345 357 nan nan nan nan 187 nan nan nan nan 201 nan 200 199 201 206 214 219 223 226 228 229 230 233 235 237 238 240 242 243 244 249 252 255 253 251 250 249 254 259 250 231 225 222 219 218 221 227 233 238 243 248 253 257 259 264 262 264 268 268 272 271 265 266 266 264 263 264 270 277 284 288 290 291
nan nan nan nan nan nan nan nan nan nan nan 5 nan nan nan nan nan nan nan nan nan nan nan nan 196 200 199 199 208 217 221 222 222 224 226 227 232 232 234 238 239 242 246 248 249 253 255 253 252 252 253 254 246 233 224 219 215 211 219 225 231 236 242 245 250 251 255 256 258 261 261 260 262 261 262 263 264 267 274 282 286 290 291 291 291 297
nan nan nan 287 nan nan nan nan nan nan nan nan nan nan nan 153 nan nan nan nan nan nan nan nan nan 195 202 205 206 218 226 224 223 222 223 225 228 229 232 239 242 246 249 252 251 249 250 251 251 246 247 250 249 241 232 219 210 207 216 225 229 233 238 242 243 243 246 249 254 254 254 253 256 258 260 264 267 269 267 265 276 283 287 290 293 295
nan nan nan nan nan nan nan nan nan nan nan nan 2 nan nan nan nan nan nan nan nan nan nan nan nan nan 205 203 206 221 226 228 226 228 228 227 229 233 239 243 246 248 252 254 254 249 252 253 252 247 243 240 238 238 238 228 215 212 211 218 223 228 231 234 234 235 240 246 248 252 253 254 255 257 260 264 269 272 277 275 269 275 284 288 289 293